Погода в Ясном

Россия / Забайкальский край     52°07′36″N   113°29′38″E
темп.,
°C
ветер,
м/с
пор.,
м/с
влажн.,
%
обл.,
%
осадки,
мм/ч
давл.,
гПа
погр.,
м
1 марта, пн
пн100:00−27зсз11800 0.0 104120
03:00−29ю11890 0.0 104219
06:00−30ююв11960 0.0 103919
09:00−29ююв019734 0.0 103819
12:00−22ююв228788 0.0 1033251
15:00−18ю228594 0.0 1028322
18:00−17ю1289100 0.0 1025167
21:00−22юз119690 0.1 102720
2 марта, вт
вт200:00−24ююз1110093 0.1 102620
03:00−25ююв1110097 0.1 102520
06:00−24ююв11100100 0.0 102320
09:00−24вюв0099100 0.0 102120
12:00−18ю238899 0.0 1017331
15:00−14ююз3582100 0.0 1013493
18:00−13ю2491100 0.0 1011312
21:00−18ю129895 0.1 101420
3 марта, ср
ср300:00−19ю129889 0.0 101420
03:00−19ююв119894 0.0 101320
06:00−21ю119988 0.0 101420
09:00−19ююз119794 0.0 101320
12:00−12ююз2387100 0.0 1010393
15:00−7з4877100 0.3 10071142
18:00−8зсз3778100 0.1 1007570
21:00−14зсз4127689 0.2 1011367
4 марта, чт
чт400:00−19зсз4107413 0.0 1014187
03:00−22сз33818 0.0 101841
06:00−24сз47840 0.0 1021118
09:00−26сз238725 0.0 102557
12:00−19ссз34770 0.0 1026559
15:00−17ссз456614 0.0 10271151
18:00−18ссз2476100 0.0 1029763
21:00−24сз118594 0.0 103520
5 марта, пт
пт500:00−26с118762 0.0 103920
03:00−28с228863 0.0 104219
06:00−30ссз12860 0.0 104519
09:00−30ссз11820 0.0 104719
12:00−22ююз12740 0.0 1043338
15:00−19ююз347735 0.0 1039468
18:00−18ююз128330 0.0 1037244
21:00−24св118915 0.0 103920